User: anonymous   Login
Location: Unspecified
(0.0000°N, 0.0000°E)
Time: 22:18:49
(UTC+00:00)
Language:

STARLINK-30501 - Orbit

View from above orbital plane
View from above orbital plane
View from above satellite
View from above satellite

Ground track
Ground track

The orbit is defined by the following mean orbital elements,

1 57917U          26145.28268965 +.00000000 +00000-0 -56892-2 0 00009
2 57917  43.0029 252.5037 0001434 242.3829 117.6877 15.27501924    08
Epoch (UTC): 25 May 2026 06:47:04
Eccentricity: 0.0001434
inclination: 43.0029°
perigee height: 482 km
apogee height: 484 km
right ascension of ascending node: 252.5037°
argument of perigee: 242.3829°
revolutions per day: 15.27501924
mean anomaly at epoch: 117.6877°

The dashed part of the orbit path shows where the satellite is in the earth's shadow,  

DLR